Year,Month,Day,Hour,Minute,Value (Times are PST for temperature in C)
2011,07,19,00,00,13.90
2011,07,19,00,01,13.90
2011,07,19,00,05,13.90
2011,07,19,00,06,13.90
2011,07,19,00,07,13.90
2011,07,19,00,08,13.90
2011,07,19,00,09,13.80
2011,07,19,00,10,13.80
2011,07,19,00,11,13.80
2011,07,19,00,12,13.80
2011,07,19,00,13,13.80
2011,07,19,00,14,13.70
2011,07,19,00,15,13.70
2011,07,19,00,16,13.70
2011,07,19,00,17,13.70
2011,07,19,00,18,13.60
2011,07,19,00,19,13.60
2011,07,19,00,20,13.60
2011,07,19,00,21,13.60
2011,07,19,00,22,13.60
2011,07,19,00,23,13.60
2011,07,19,00,24,13.60
2011,07,19,00,25,13.60
2011,07,19,00,26,13.60
2011,07,19,00,27,13.60
2011,07,19,00,28,13.70
2011,07,19,00,29,13.70
2011,07,19,00,30,13.70
2011,07,19,00,31,13.70
2011,07,19,00,32,13.70
2011,07,19,00,33,13.70
2011,07,19,00,34,13.70
2011,07,19,00,35,13.70
2011,07,19,00,36,13.70
2011,07,19,00,37,13.70
2011,07,19,00,38,13.70
2011,07,19,00,39,13.70
2011,07,19,00,40,13.70
2011,07,19,00,41,13.70
2011,07,19,00,42,13.70
2011,07,19,00,43,13.70
2011,07,19,00,44,13.70
2011,07,19,00,45,13.70
2011,07,19,00,46,13.70
2011,07,19,00,47,13.70
2011,07,19,00,48,13.70
2011,07,19,00,49,13.70
2011,07,19,00,50,13.70
2011,07,19,00,51,13.70
2011,07,19,00,52,13.70
2011,07,19,00,53,13.80
2011,07,19,00,54,13.70
2011,07,19,00,55,13.80
2011,07,19,00,56,13.80
2011,07,19,00,57,13.80
2011,07,19,00,58,13.80
2011,07,19,00,59,13.80
2011,07,19,01,00,13.80
2011,07,19,01,01,13.80
2011,07,19,01,02,13.80
2011,07,19,01,03,13.80
2011,07,19,01,04,13.80
2011,07,19,01,05,13.80
2011,07,19,01,06,13.80
2011,07,19,01,07,13.80
2011,07,19,01,08,13.80
2011,07,19,01,09,13.80
2011,07,19,01,10,13.90
2011,07,19,01,11,13.90
2011,07,19,01,12,13.90
2011,07,19,01,13,14.00
2011,07,19,01,14,14.00
2011,07,19,01,15,14.00
2011,07,19,01,16,14.00
2011,07,19,01,17,14.00
2011,07,19,01,18,14.00
2011,07,19,01,19,14.00
2011,07,19,01,20,14.10
2011,07,19,01,21,14.10
2011,07,19,01,22,14.10
2011,07,19,01,23,14.10
2011,07,19,01,24,14.00
2011,07,19,01,25,14.00
2011,07,19,01,26,14.10
2011,07,19,01,27,14.10
2011,07,19,01,28,14.10
2011,07,19,01,29,14.10
2011,07,19,01,30,14.10
2011,07,19,01,31,14.10
2011,07,19,01,32,14.20
2011,07,19,01,33,14.20
2011,07,19,01,34,14.30
2011,07,19,01,35,14.30
2011,07,19,01,36,14.30
2011,07,19,01,37,14.30
2011,07,19,01,38,14.40
2011,07,19,01,39,14.40
2011,07,19,01,40,14.40
2011,07,19,01,41,14.40
2011,07,19,01,42,14.40
2011,07,19,01,43,14.40
2011,07,19,01,44,14.40
2011,07,19,01,45,14.50
2011,07,19,01,46,14.50
2011,07,19,01,47,14.60
2011,07,19,01,48,14.70
2011,07,19,01,49,14.70
2011,07,19,01,50,14.70
2011,07,19,01,51,14.70
2011,07,19,01,52,14.70
2011,07,19,01,53,14.70
2011,07,19,01,54,14.70
2011,07,19,01,55,14.70
2011,07,19,01,56,14.60
2011,07,19,01,57,14.60
2011,07,19,01,58,14.50
2011,07,19,01,59,14.50
2011,07,19,02,00,14.40
2011,07,19,02,01,14.40
2011,07,19,02,02,14.40
2011,07,19,02,03,14.40
2011,07,19,02,04,14.40
2011,07,19,02,05,14.30
2011,07,19,02,06,14.30
2011,07,19,02,07,14.30
2011,07,19,02,08,14.30
2011,07,19,02,09,14.30
2011,07,19,02,10,14.20
2011,07,19,02,11,14.20
2011,07,19,02,12,14.20
2011,07,19,02,13,14.20
2011,07,19,02,14,14.20
2011,07,19,02,15,14.20
2011,07,19,02,16,14.20
2011,07,19,02,17,14.10
2011,07,19,02,18,14.20
2011,07,19,02,19,14.20
2011,07,19,02,20,14.20
2011,07,19,02,21,14.20
2011,07,19,02,22,14.20
2011,07,19,02,23,14.20
2011,07,19,02,24,14.20
2011,07,19,02,25,14.20
2011,07,19,02,26,14.20
2011,07,19,02,27,14.20
2011,07,19,02,28,14.20
2011,07,19,02,29,14.20
2011,07,19,02,30,14.20
2011,07,19,02,31,14.20
2011,07,19,02,32,14.20
2011,07,19,02,33,14.20
2011,07,19,02,34,14.20
2011,07,19,02,35,14.20
2011,07,19,02,36,14.20
2011,07,19,02,37,14.20
2011,07,19,02,38,14.10
2011,07,19,02,39,14.10
2011,07,19,02,40,14.10
2011,07,19,02,41,14.10
2011,07,19,02,42,14.10
2011,07,19,02,43,14.10
2011,07,19,02,44,14.10
2011,07,19,02,45,14.10
2011,07,19,02,46,14.10
2011,07,19,02,47,14.20
2011,07,19,02,48,14.20
2011,07,19,02,49,14.20
2011,07,19,02,50,14.20
2011,07,19,02,51,14.20
2011,07,19,02,52,14.20
2011,07,19,02,53,14.30
2011,07,19,02,54,14.30
2011,07,19,02,55,14.30
2011,07,19,02,56,14.30
2011,07,19,02,57,14.30
2011,07,19,02,58,14.30
2011,07,19,02,59,14.30
2011,07,19,03,00,14.30
2011,07,19,03,01,14.30
2011,07,19,03,02,14.30
2011,07,19,03,03,14.30
2011,07,19,03,04,14.30
2011,07,19,03,05,14.30
2011,07,19,03,06,14.30
2011,07,19,03,07,14.30
2011,07,19,03,08,14.30
2011,07,19,03,09,14.30
2011,07,19,03,10,14.30
2011,07,19,03,11,14.30
2011,07,19,03,12,14.20
2011,07,19,03,13,14.20
2011,07,19,03,14,14.20
2011,07,19,03,15,14.20
2011,07,19,03,16,14.20
2011,07,19,03,17,14.20
2011,07,19,03,18,14.20
2011,07,19,03,19,14.20
2011,07,19,03,20,14.20
2011,07,19,03,21,14.10
2011,07,19,03,22,14.20
2011,07,19,03,23,14.20
2011,07,19,03,24,14.20
2011,07,19,03,25,14.10
2011,07,19,03,26,14.10
2011,07,19,03,27,14.10
2011,07,19,03,28,14.10
2011,07,19,03,29,14.10
2011,07,19,03,30,14.20
2011,07,19,03,31,14.20
2011,07,19,03,32,14.20
2011,07,19,03,33,14.20
2011,07,19,03,34,14.20
2011,07,19,03,35,14.20
2011,07,19,03,36,14.20
2011,07,19,03,37,14.20
2011,07,19,03,38,14.20
2011,07,19,03,39,14.20
2011,07,19,03,40,14.20
2011,07,19,03,41,14.20
2011,07,19,03,42,14.20
2011,07,19,03,43,14.20
2011,07,19,03,44,14.20
2011,07,19,03,45,14.20
2011,07,19,03,46,14.20
2011,07,19,03,47,14.20
2011,07,19,03,48,14.20
2011,07,19,03,49,14.20
2011,07,19,03,50,14.30
2011,07,19,03,51,14.30
2011,07,19,03,52,14.30
2011,07,19,03,53,14.30
2011,07,19,03,54,14.30
2011,07,19,03,55,14.40
2011,07,19,03,56,14.40
2011,07,19,03,57,14.40
2011,07,19,03,58,14.40
2011,07,19,03,59,14.50
2011,07,19,04,00,14.50
2011,07,19,04,01,14.50
2011,07,19,04,02,14.50
2011,07,19,04,03,14.60
2011,07,19,04,04,14.60
2011,07,19,04,05,14.60
2011,07,19,04,06,14.60
2011,07,19,04,07,14.70
2011,07,19,04,08,14.70
2011,07,19,04,09,14.70
2011,07,19,04,10,14.70
2011,07,19,04,11,14.70
2011,07,19,04,12,14.70
2011,07,19,04,13,14.70
2011,07,19,04,14,14.70
2011,07,19,04,15,14.70
2011,07,19,04,16,14.70
2011,07,19,04,17,14.70
2011,07,19,04,18,14.70
2011,07,19,04,19,14.70
2011,07,19,04,20,14.80
2011,07,19,04,21,14.80
2011,07,19,04,22,14.80
2011,07,19,04,23,14.80
2011,07,19,04,24,14.90
2011,07,19,04,25,14.90
2011,07,19,04,26,14.90
2011,07,19,04,27,15.00
2011,07,19,04,28,15.00
2011,07,19,04,29,15.00
2011,07,19,04,30,15.00
2011,07,19,04,31,15.00
2011,07,19,04,32,15.10
2011,07,19,04,33,15.10
2011,07,19,04,34,15.10
2011,07,19,04,35,15.10
2011,07,19,04,36,15.10
2011,07,19,04,37,15.00
2011,07,19,04,38,15.00
2011,07,19,04,39,15.10
2011,07,19,04,40,15.10
2011,07,19,04,41,15.10
2011,07,19,04,42,15.10
2011,07,19,04,43,15.10
2011,07,19,04,44,15.10
2011,07,19,04,45,15.10
2011,07,19,04,46,15.10
2011,07,19,04,47,15.10
2011,07,19,04,48,15.10
2011,07,19,04,49,15.10
2011,07,19,04,50,15.10
2011,07,19,04,51,15.10
2011,07,19,04,52,15.10
2011,07,19,04,53,15.00
2011,07,19,04,54,15.00
2011,07,19,04,55,15.00
2011,07,19,04,56,15.00
2011,07,19,04,57,15.00
2011,07,19,04,58,15.00
2011,07,19,04,59,15.00
2011,07,19,05,00,15.00
2011,07,19,05,01,15.00
2011,07,19,05,02,14.90
2011,07,19,05,03,14.90
2011,07,19,05,04,14.90
2011,07,19,05,05,14.90
2011,07,19,05,06,14.90
2011,07,19,05,07,14.90
2011,07,19,05,08,14.90
2011,07,19,05,09,14.90
2011,07,19,05,10,14.90
2011,07,19,05,11,14.90
2011,07,19,05,12,14.80
2011,07,19,05,13,14.80
2011,07,19,05,14,14.80
2011,07,19,05,15,14.80
2011,07,19,05,16,14.80
2011,07,19,05,17,14.80
2011,07,19,05,18,14.80
2011,07,19,05,19,14.80
2011,07,19,05,20,14.80
2011,07,19,05,21,14.80
2011,07,19,05,22,14.80
2011,07,19,05,23,14.80
2011,07,19,05,24,14.80
2011,07,19,05,25,14.80
2011,07,19,05,26,14.80
2011,07,19,05,27,14.80
2011,07,19,05,28,14.80
2011,07,19,05,29,14.80
2011,07,19,05,30,14.80
2011,07,19,05,31,14.80
2011,07,19,05,32,14.90
2011,07,19,05,33,14.90
2011,07,19,05,34,14.90
2011,07,19,05,35,14.90
2011,07,19,05,36,14.90
2011,07,19,05,37,14.90
2011,07,19,05,38,14.90
2011,07,19,05,39,14.90
2011,07,19,05,40,14.80
2011,07,19,05,41,14.80
2011,07,19,05,42,14.80
2011,07,19,05,43,14.80
2011,07,19,05,44,14.80
2011,07,19,05,45,14.80
2011,07,19,05,46,14.80
2011,07,19,05,47,14.80
2011,07,19,05,48,14.80
2011,07,19,05,49,14.80
2011,07,19,05,50,14.80
2011,07,19,05,51,14.80
2011,07,19,05,52,14.70
2011,07,19,05,53,14.80
2011,07,19,05,54,14.70
2011,07,19,05,55,14.70
2011,07,19,05,56,14.70
2011,07,19,05,57,14.70
2011,07,19,05,58,14.70
2011,07,19,05,59,14.70
2011,07,19,06,00,14.70
2011,07,19,06,01,14.60
2011,07,19,06,02,14.60
2011,07,19,06,03,14.60
2011,07,19,06,04,14.60
2011,07,19,06,05,14.60
2011,07,19,06,06,14.60
2011,07,19,06,07,14.60
2011,07,19,06,08,14.60
2011,07,19,06,09,14.60
2011,07,19,06,10,14.60
2011,07,19,06,11,14.60
2011,07,19,06,12,14.50
2011,07,19,06,13,14.50
2011,07,19,06,14,14.50
2011,07,19,06,15,14.50
2011,07,19,06,16,14.50
2011,07,19,06,17,14.50
2011,07,19,06,18,14.50
2011,07,19,06,19,14.50
2011,07,19,06,20,14.40
2011,07,19,06,21,14.40
2011,07,19,06,22,14.40
2011,07,19,06,23,14.40
2011,07,19,06,24,14.40
2011,07,19,06,25,14.40
2011,07,19,06,26,14.40
2011,07,19,06,27,14.40
2011,07,19,06,28,14.40
2011,07,19,06,29,14.40
2011,07,19,06,30,14.40
2011,07,19,06,31,14.40
2011,07,19,06,32,14.40
2011,07,19,06,33,14.40
2011,07,19,06,34,14.40
2011,07,19,06,35,14.40
2011,07,19,06,36,14.40
2011,07,19,06,37,14.40
2011,07,19,06,38,14.40
2011,07,19,06,39,14.40
2011,07,19,06,40,14.40
2011,07,19,06,41,14.40
2011,07,19,06,42,14.40
2011,07,19,06,43,14.40
2011,07,19,06,44,14.40
2011,07,19,06,45,14.40
2011,07,19,06,46,14.40
2011,07,19,06,47,14.40
2011,07,19,06,48,14.40
2011,07,19,06,49,14.50
2011,07,19,06,50,14.50
2011,07,19,06,51,14.50
2011,07,19,06,52,14.50
2011,07,19,06,53,14.50
2011,07,19,06,54,14.50
2011,07,19,06,55,14.60
2011,07,19,06,56,14.60
2011,07,19,06,57,14.60
2011,07,19,06,58,14.60
2011,07,19,06,59,14.60
2011,07,19,07,00,14.60
2011,07,19,07,01,14.60
2011,07,19,07,02,14.70
2011,07,19,07,03,14.70
2011,07,19,07,04,14.70
2011,07,19,07,05,14.70
2011,07,19,07,06,14.70
2011,07,19,07,07,14.70
2011,07,19,07,08,14.70
2011,07,19,07,09,14.70
2011,07,19,07,10,14.70
2011,07,19,07,11,14.70
2011,07,19,07,12,14.80
2011,07,19,07,13,14.80
2011,07,19,07,14,14.80
2011,07,19,07,15,14.80
2011,07,19,07,16,14.80
2011,07,19,07,17,14.80
2011,07,19,07,18,14.80
2011,07,19,07,19,14.90
2011,07,19,07,20,14.90
2011,07,19,07,21,14.90
2011,07,19,07,22,14.90
2011,07,19,07,23,14.90
2011,07,19,07,24,15.00
2011,07,19,07,25,15.00
2011,07,19,07,26,15.00
2011,07,19,07,27,15.10
2011,07,19,07,28,15.10
2011,07,19,07,29,15.10
2011,07,19,07,30,15.20
2011,07,19,07,31,15.20
2011,07,19,07,32,15.20
2011,07,19,07,33,15.30
2011,07,19,07,34,15.30
2011,07,19,07,35,15.30
2011,07,19,07,36,15.40
2011,07,19,07,37,15.40
2011,07,19,07,38,15.40
2011,07,19,07,39,15.50
2011,07,19,07,40,15.50
2011,07,19,07,41,15.50
2011,07,19,07,42,15.50
2011,07,19,07,43,15.50
2011,07,19,07,44,15.50
2011,07,19,07,45,15.50
2011,07,19,07,46,15.60
2011,07,19,07,47,15.60
2011,07,19,07,48,15.60
2011,07,19,07,49,15.60
2011,07,19,07,50,15.70
2011,07,19,07,51,15.70
2011,07,19,07,52,15.70
2011,07,19,07,53,15.70
2011,07,19,07,54,15.70
2011,07,19,07,55,15.70
2011,07,19,07,56,15.70
2011,07,19,07,57,15.70
2011,07,19,07,58,15.70
2011,07,19,07,59,15.70
2011,07,19,08,00,15.80
2011,07,19,08,01,15.80
2011,07,19,08,02,15.80
2011,07,19,08,03,15.90
2011,07,19,08,04,15.90
2011,07,19,08,05,15.90
2011,07,19,08,06,15.90
2011,07,19,08,07,15.90
2011,07,19,08,08,15.90
2011,07,19,08,09,15.90
2011,07,19,08,10,15.90
2011,07,19,08,11,15.90
2011,07,19,08,12,15.90
2011,07,19,08,13,15.90
2011,07,19,08,14,15.90
2011,07,19,08,15,15.90
2011,07,19,08,16,15.90
2011,07,19,08,17,15.90
2011,07,19,08,18,15.90
2011,07,19,08,19,15.90
2011,07,19,08,20,15.90
2011,07,19,08,21,15.90
2011,07,19,08,22,15.90
2011,07,19,08,23,15.90
2011,07,19,08,24,15.90
2011,07,19,08,25,15.90
2011,07,19,08,26,15.90
2011,07,19,08,27,16.00
2011,07,19,08,28,16.00
2011,07,19,08,29,16.00
2011,07,19,08,30,16.00
2011,07,19,08,31,15.90
2011,07,19,08,32,15.90
2011,07,19,08,33,16.00
2011,07,19,08,34,15.90
2011,07,19,08,35,15.90
2011,07,19,08,36,15.90
2011,07,19,08,37,15.90
2011,07,19,08,38,16.00
2011,07,19,08,39,16.00
2011,07,19,08,40,16.00
2011,07,19,08,41,16.00
2011,07,19,08,42,16.00
2011,07,19,08,43,16.00
2011,07,19,08,44,16.00
2011,07,19,08,45,15.90
2011,07,19,08,46,15.90
2011,07,19,08,47,15.90
2011,07,19,08,48,15.90
2011,07,19,08,49,15.90
2011,07,19,08,50,15.90
2011,07,19,08,51,15.90
2011,07,19,08,52,15.80
2011,07,19,08,53,15.90
2011,07,19,08,54,15.80
2011,07,19,08,55,15.80
2011,07,19,08,56,15.90
2011,07,19,08,57,15.90
2011,07,19,08,58,15.90
2011,07,19,08,59,15.90
2011,07,19,09,00,15.90
2011,07,19,09,01,15.90
2011,07,19,09,02,16.00
2011,07,19,09,03,16.00
2011,07,19,09,04,16.00
2011,07,19,09,05,16.00
2011,07,19,09,06,16.00
2011,07,19,09,07,15.90
2011,07,19,09,08,15.90
2011,07,19,09,09,15.90
2011,07,19,09,10,15.90
2011,07,19,09,11,15.90
2011,07,19,09,12,15.90
2011,07,19,09,13,15.90
2011,07,19,09,14,15.80
2011,07,19,09,15,15.90
2011,07,19,09,16,15.90
2011,07,19,09,17,15.80
2011,07,19,09,18,15.80
2011,07,19,09,19,15.80
2011,07,19,09,20,15.80
2011,07,19,09,21,15.80
2011,07,19,09,22,15.90
2011,07,19,09,23,15.90
2011,07,19,09,24,15.90
2011,07,19,09,25,15.90
2011,07,19,09,26,15.90
2011,07,19,09,27,15.90
2011,07,19,09,28,15.90
2011,07,19,09,29,15.90
2011,07,19,09,30,16.00
2011,07,19,09,31,16.00
2011,07,19,09,32,16.00
2011,07,19,09,33,16.00
2011,07,19,09,34,16.00
2011,07,19,09,35,16.00
2011,07,19,09,36,16.00
2011,07,19,09,37,16.00
2011,07,19,09,38,16.10
2011,07,19,09,39,16.00
2011,07,19,09,40,16.00
2011,07,19,09,41,16.10
2011,07,19,09,42,16.10
2011,07,19,09,43,16.10
2011,07,19,09,44,16.10
2011,07,19,09,45,16.10
2011,07,19,09,46,16.10
2011,07,19,09,47,16.10
2011,07,19,09,48,16.10
2011,07,19,09,49,16.10
2011,07,19,09,50,16.10
2011,07,19,09,51,16.10
2011,07,19,09,52,16.20
2011,07,19,09,53,16.20
2011,07,19,09,54,16.20
2011,07,19,09,55,16.10
2011,07,19,09,56,16.10
2011,07,19,09,57,16.10
2011,07,19,09,58,16.10
2011,07,19,09,59,16.20
2011,07,19,10,00,16.20
2011,07,19,10,01,16.20
2011,07,19,10,02,16.20
2011,07,19,10,03,16.20
2011,07,19,10,04,16.30
2011,07,19,10,05,16.40
2011,07,19,10,06,16.50
2011,07,19,10,07,16.60
2011,07,19,10,08,16.70
2011,07,19,10,09,16.80
2011,07,19,10,10,16.80
2011,07,19,10,11,16.80
2011,07,19,10,12,16.80
2011,07,19,10,13,16.90
2011,07,19,10,14,17.10
2011,07,19,10,15,17.20
2011,07,19,10,16,17.30
2011,07,19,10,17,17.30
2011,07,19,10,18,17.30
2011,07,19,10,19,17.30
2011,07,19,10,20,17.20
2011,07,19,10,21,17.20
2011,07,19,10,22,17.10
2011,07,19,10,23,17.10
2011,07,19,10,24,17.00
2011,07,19,10,25,17.10
2011,07,19,10,26,17.00
2011,07,19,10,27,17.00
2011,07,19,10,28,17.10
2011,07,19,10,29,17.10
2011,07,19,10,30,17.20
2011,07,19,10,31,17.20
2011,07,19,10,32,17.30
2011,07,19,10,33,17.30
2011,07,19,10,34,17.50
2011,07,19,10,35,17.60
2011,07,19,10,36,17.70
2011,07,19,10,37,17.70
2011,07,19,10,38,17.80
2011,07,19,10,39,17.80
2011,07,19,10,40,17.90
2011,07,19,10,41,18.00
2011,07,19,10,42,18.00
2011,07,19,10,43,18.20
2011,07,19,10,44,18.20
2011,07,19,10,45,18.20
2011,07,19,10,46,18.20
2011,07,19,10,47,18.20
2011,07,19,10,48,18.30
2011,07,19,10,49,18.30
2011,07,19,10,50,18.30
2011,07,19,10,51,18.30
2011,07,19,10,52,18.30
2011,07,19,10,53,18.20
2011,07,19,10,54,18.10
2011,07,19,10,55,18.10
2011,07,19,10,56,18.10
2011,07,19,10,57,18.10
2011,07,19,10,58,18.20
2011,07,19,10,59,18.20
2011,07,19,11,00,18.40
2011,07,19,11,01,18.50
2011,07,19,11,02,18.60
2011,07,19,11,03,18.70
2011,07,19,11,04,18.60
2011,07,19,11,05,18.60
2011,07,19,11,06,18.50
2011,07,19,11,07,18.40
2011,07,19,11,08,18.30
2011,07,19,11,09,18.30
2011,07,19,11,10,18.20
2011,07,19,11,11,18.20
2011,07,19,11,12,18.20
2011,07,19,11,13,18.10
2011,07,19,11,14,18.00
2011,07,19,11,15,18.00
2011,07,19,11,16,18.00
2011,07,19,11,17,18.00
2011,07,19,11,18,17.90
2011,07,19,11,19,17.80
2011,07,19,11,20,17.90
2011,07,19,11,21,18.10
2011,07,19,11,22,18.20
2011,07,19,11,23,18.20
2011,07,19,11,24,18.30
2011,07,19,11,25,18.30
2011,07,19,11,26,18.30
2011,07,19,11,27,18.40
2011,07,19,11,28,18.50
2011,07,19,11,29,18.60
2011,07,19,11,30,18.60
2011,07,19,11,31,18.60
2011,07,19,11,32,18.60
2011,07,19,11,33,18.60
2011,07,19,11,34,18.60
2011,07,19,11,35,18.60
2011,07,19,11,36,18.70
2011,07,19,11,37,18.70
2011,07,19,11,38,18.70
2011,07,19,11,39,18.70
2011,07,19,11,40,18.80
2011,07,19,11,41,18.80
2011,07,19,11,42,18.80
2011,07,19,11,43,18.80
2011,07,19,11,44,18.80
2011,07,19,11,45,18.80
2011,07,19,11,46,18.70
2011,07,19,11,47,18.60
2011,07,19,11,48,18.70
2011,07,19,11,49,18.70
2011,07,19,11,50,18.70
2011,07,19,11,51,18.80
2011,07,19,11,52,18.80
2011,07,19,11,53,18.80
2011,07,19,11,54,18.80
2011,07,19,11,55,18.90
2011,07,19,11,56,18.90
2011,07,19,11,57,18.90
2011,07,19,11,58,18.80
2011,07,19,11,59,18.80
2011,07,19,12,00,18.70
2011,07,19,12,01,18.60
2011,07,19,12,02,18.70
2011,07,19,12,03,18.70
2011,07,19,12,04,18.70
2011,07,19,12,05,18.70
2011,07,19,12,06,18.80
2011,07,19,12,07,18.80
2011,07,19,12,08,18.70
2011,07,19,12,09,18.70
2011,07,19,12,10,18.70
2011,07,19,12,11,18.60
2011,07,19,12,12,18.70
2011,07,19,12,13,18.90
2011,07,19,12,14,18.90
2011,07,19,12,15,18.90
2011,07,19,12,16,18.80
2011,07,19,12,17,18.80
2011,07,19,12,18,18.80
2011,07,19,12,19,18.90
2011,07,19,12,20,19.10
2011,07,19,12,21,19.10
2011,07,19,12,22,19.20
2011,07,19,12,23,19.20
2011,07,19,12,24,19.20
2011,07,19,12,25,19.20
2011,07,19,12,26,19.20
2011,07,19,12,27,19.20
2011,07,19,12,28,19.20
2011,07,19,12,29,19.20
2011,07,19,12,30,19.30
2011,07,19,12,31,19.40
2011,07,19,12,32,19.40
2011,07,19,12,33,19.30
2011,07,19,12,34,19.30
2011,07,19,12,35,19.20
2011,07,19,12,36,19.10
2011,07,19,12,37,19.00
2011,07,19,12,38,19.00
2011,07,19,12,39,19.10
2011,07,19,12,40,19.20
2011,07,19,12,41,19.30
2011,07,19,12,42,19.50
2011,07,19,12,43,19.70
2011,07,19,12,44,19.80
2011,07,19,12,45,19.90
2011,07,19,12,46,19.90
2011,07,19,12,47,20.00
2011,07,19,12,48,20.00
2011,07,19,12,49,20.10
2011,07,19,12,50,20.10
2011,07,19,12,51,20.10
2011,07,19,12,52,20.10
2011,07,19,12,53,20.10
2011,07,19,12,54,20.10
2011,07,19,12,55,20.10
2011,07,19,12,56,20.10
2011,07,19,12,57,20.10
2011,07,19,12,58,19.90
2011,07,19,12,59,19.70
2011,07,19,13,00,19.50
2011,07,19,13,01,19.40
2011,07,19,13,02,19.30
2011,07,19,13,03,19.30
2011,07,19,13,04,19.30
2011,07,19,13,05,19.30
2011,07,19,13,06,19.40
2011,07,19,13,07,19.40
2011,07,19,13,08,19.50
2011,07,19,13,09,19.50
2011,07,19,13,10,19.50
2011,07,19,13,11,19.50
2011,07,19,13,12,19.60
2011,07,19,13,13,19.70
2011,07,19,13,14,19.80
2011,07,19,13,15,19.90
2011,07,19,13,16,20.00
2011,07,19,13,17,20.10
2011,07,19,13,18,20.20
2011,07,19,13,19,20.30
2011,07,19,13,20,20.50
2011,07,19,13,21,20.70
2011,07,19,13,22,20.70
2011,07,19,13,23,20.80
2011,07,19,13,24,20.90
2011,07,19,13,25,21.00
2011,07,19,13,26,21.00
2011,07,19,13,27,21.10
2011,07,19,13,28,21.10
2011,07,19,13,29,21.10
2011,07,19,13,30,21.10
2011,07,19,13,31,21.00
2011,07,19,13,32,21.00
2011,07,19,13,33,21.00
2011,07,19,13,34,21.10
2011,07,19,13,35,21.20
2011,07,19,13,36,21.20
2011,07,19,13,37,21.20
2011,07,19,13,38,21.20
2011,07,19,13,39,21.30
2011,07,19,13,40,21.40
2011,07,19,13,41,21.50
2011,07,19,13,42,21.60
2011,07,19,13,43,21.60
2011,07,19,13,44,21.50
2011,07,19,13,45,21.40
2011,07,19,13,46,21.30
2011,07,19,13,47,21.20
2011,07,19,13,48,21.10
2011,07,19,13,49,21.10
2011,07,19,13,50,21.10
2011,07,19,13,51,21.00
2011,07,19,13,52,20.80
2011,07,19,13,53,20.70
2011,07,19,13,54,20.70
2011,07,19,13,55,20.70
2011,07,19,13,56,20.70
2011,07,19,13,57,20.70
2011,07,19,13,58,20.70
2011,07,19,13,59,20.70
2011,07,19,14,00,20.70
2011,07,19,14,01,20.80
2011,07,19,14,02,20.80
2011,07,19,14,03,20.90
2011,07,19,14,04,20.90
2011,07,19,14,05,21.00
2011,07,19,14,06,21.00
2011,07,19,14,07,21.10
2011,07,19,14,08,21.20
2011,07,19,14,09,21.20
2011,07,19,14,10,21.30
2011,07,19,14,11,21.50
2011,07,19,14,12,21.70
2011,07,19,14,13,21.80
2011,07,19,14,14,21.90
2011,07,19,14,15,22.00
2011,07,19,14,16,22.10
2011,07,19,14,17,22.10
2011,07,19,14,18,22.10
2011,07,19,14,19,22.20
2011,07,19,14,20,22.20
2011,07,19,14,21,22.20
2011,07,19,14,22,22.20
2011,07,19,14,23,22.20
2011,07,19,14,24,22.00
2011,07,19,14,25,21.90
2011,07,19,14,26,21.90
2011,07,19,14,27,21.90
2011,07,19,14,28,21.90
2011,07,19,14,29,21.80
2011,07,19,14,30,21.70
2011,07,19,14,31,21.60
2011,07,19,14,32,21.50
2011,07,19,14,33,21.40
2011,07,19,14,34,21.30
2011,07,19,14,35,21.30
2011,07,19,14,36,21.30
2011,07,19,14,37,21.30
2011,07,19,14,38,21.40
2011,07,19,14,39,21.50
2011,07,19,14,40,21.70
2011,07,19,14,41,21.80
2011,07,19,14,42,21.90
2011,07,19,14,43,22.00
2011,07,19,14,44,22.00
2011,07,19,14,45,22.10
2011,07,19,14,46,22.10
2011,07,19,14,47,22.10
2011,07,19,14,48,22.20
2011,07,19,14,49,22.10
2011,07,19,14,50,21.90
2011,07,19,14,51,21.80
2011,07,19,14,52,21.60
2011,07,19,14,53,21.50
2011,07,19,14,54,21.40
2011,07,19,14,55,21.40
2011,07,19,14,56,21.40
2011,07,19,14,57,21.50
2011,07,19,14,58,21.50
2011,07,19,14,59,21.50
2011,07,19,15,00,21.50
2011,07,19,15,01,21.40
2011,07,19,15,02,21.40
2011,07,19,15,03,21.40
2011,07,19,15,04,21.40
2011,07,19,15,05,21.40
2011,07,19,15,06,21.30
2011,07,19,15,07,21.40
2011,07,19,15,08,21.30
2011,07,19,15,09,21.30
2011,07,19,15,10,21.30
2011,07,19,15,11,21.30
2011,07,19,15,12,21.30
2011,07,19,15,13,21.30
2011,07,19,15,14,21.30
2011,07,19,15,15,21.30
2011,07,19,15,16,21.20
2011,07,19,15,17,21.00
2011,07,19,15,18,20.90
2011,07,19,15,19,20.90
2011,07,19,15,20,20.90
2011,07,19,15,21,21.00
2011,07,19,15,22,21.00
2011,07,19,15,23,21.00
2011,07,19,15,24,20.90
2011,07,19,15,25,20.80
2011,07,19,15,26,20.80
2011,07,19,15,27,20.70
2011,07,19,15,28,20.70
2011,07,19,15,29,20.70
2011,07,19,15,30,20.70
2011,07,19,15,31,20.60
2011,07,19,15,32,20.60
2011,07,19,15,33,20.60
2011,07,19,15,34,20.50
2011,07,19,15,35,20.40
2011,07,19,15,36,20.40
2011,07,19,15,37,20.40
2011,07,19,15,38,20.30
2011,07,19,15,39,20.30
2011,07,19,15,40,20.20
2011,07,19,15,41,20.10
2011,07,19,15,42,20.10
2011,07,19,15,43,20.10
2011,07,19,15,44,20.00
2011,07,19,15,45,20.00
2011,07,19,15,46,20.00
2011,07,19,15,47,20.00
2011,07,19,15,48,20.10
2011,07,19,15,49,20.10
2011,07,19,15,50,20.10
2011,07,19,15,51,20.10
2011,07,19,15,52,20.10
2011,07,19,15,53,20.10
2011,07,19,15,54,20.10
2011,07,19,15,55,20.10
2011,07,19,15,56,20.10
2011,07,19,15,57,20.10
2011,07,19,15,58,20.00
2011,07,19,15,59,20.00
2011,07,19,16,00,20.10
2011,07,19,16,01,20.10
2011,07,19,16,02,20.20
2011,07,19,16,03,20.10
2011,07,19,16,04,20.10
2011,07,19,16,05,20.10
2011,07,19,16,06,20.10
2011,07,19,16,07,20.10
2011,07,19,16,08,20.00
2011,07,19,16,09,20.00
2011,07,19,16,10,19.90
2011,07,19,16,11,19.90
2011,07,19,16,12,19.80
2011,07,19,16,13,19.80
2011,07,19,16,14,19.80
2011,07,19,16,15,19.80
2011,07,19,16,16,19.80
2011,07,19,16,17,19.80
2011,07,19,16,18,19.80
2011,07,19,16,19,19.80
2011,07,19,16,20,19.90
2011,07,19,16,21,19.90
2011,07,19,16,22,19.90
2011,07,19,16,23,20.00
2011,07,19,16,24,20.10
2011,07,19,16,25,20.10
2011,07,19,16,26,20.10
2011,07,19,16,27,20.10
2011,07,19,16,28,20.00
2011,07,19,16,29,19.90
2011,07,19,16,30,19.90
2011,07,19,16,31,19.90
2011,07,19,16,32,19.90
2011,07,19,16,33,19.90
2011,07,19,16,34,19.90
2011,07,19,16,35,19.90
2011,07,19,16,36,19.90
2011,07,19,16,37,19.90
2011,07,19,16,38,19.90
2011,07,19,16,39,19.80
2011,07,19,16,40,19.80
2011,07,19,16,41,19.80
2011,07,19,16,42,19.80
2011,07,19,16,43,19.80
2011,07,19,16,44,19.80
2011,07,19,16,45,19.80
2011,07,19,16,46,19.70
2011,07,19,16,47,19.70
2011,07,19,16,48,19.70
2011,07,19,16,49,19.60
2011,07,19,16,50,19.60
2011,07,19,16,51,19.60
2011,07,19,16,52,19.50
2011,07,19,16,53,19.50
2011,07,19,16,54,19.40
2011,07,19,16,55,19.40
2011,07,19,16,56,19.30
2011,07,19,16,57,19.30
2011,07,19,16,58,19.30
2011,07,19,16,59,19.30
2011,07,19,17,00,19.30
2011,07,19,17,01,19.30
2011,07,19,17,02,19.30
2011,07,19,17,03,19.30
2011,07,19,17,04,19.30
2011,07,19,17,05,19.30
2011,07,19,17,06,19.30
2011,07,19,17,07,19.30
2011,07,19,17,08,19.20
2011,07,19,17,09,19.20
2011,07,19,17,10,19.20
2011,07,19,17,11,19.20
2011,07,19,17,12,19.20
2011,07,19,17,13,19.20
2011,07,19,17,14,19.20
2011,07,19,17,15,19.20
2011,07,19,17,16,19.10
2011,07,19,17,17,19.10
2011,07,19,17,18,19.00
2011,07,19,17,19,19.00
2011,07,19,17,20,19.00
2011,07,19,17,21,19.00
2011,07,19,17,22,19.00